Home   Weather   Rancho Cucamonga   Past weeks

Flag for USA Past Weather in Rancho Cucamonga, California, USA — Yesterday and Last 2 Weeks

Now
57 °F

Fog.


Feels Like: 57 °F
Forecast: 56 / 64 °F
Wind: No wind

Location: Ontario International Airport

Current Time: Dec 11, 2016 at 12:13:21 am

Latest Report: Dec 10, 2016 at 11:53 pm


Visibility: 4 mi

Pressure: 30.11 "Hg

Humidity: 93%

Dew Point: 55 °F

Location of Rancho CucamongaLocation

Past Weather in Rancho Cucamonga — Graph

°F

Rancho Cucamonga Temperature Yesterday

Maximum temperature yesterday: 64 °F (at 2:53 pm)
Minimum temperature yesterday: 46 °F (at 4:53 am)
Average temperature yesterday: 55 °F

High & Low Weather Summary for the Past Weeks

 TemperatureHumidityPressure
High73 °F (Dec 4, 1:53 pm)100% (Nov 26, 5:53 pm)30.27 "Hg (Nov 26, 5:53 pm)
Low40 °F (Dec 3, 5:53 am)11% (Dec 3, 11:53 am)29.83 "Hg (Nov 28, 3:53 pm)
Average54 °F59%30.03 "Hg
* Reported Nov 25 10:53 pm — Dec 10 10:53 pm, Rancho Cucamonga, Weather by CustomWeather, © 2016

Note: Actual official high and low records may vary slightly from our data, if they occured in-between our weather recording intervals... More about our weather records

Advertising

Rancho Cucamonga Weather History for the Previous 24 Hours

Scroll right to see more
 ConditionsComfort  
Time TempWeatherWind HumidityBarometerVisibility
10:53 pm
Sat, Dec 10
57 °FFog.No wind90%30.12 "Hg5 mi
10:04 pm56 °FFog.No wind97%30.13 "Hg5 mi
8:53 pm55 °FFog.No wind96%30.12 "Hg5 mi
7:53 pm54 °FFog.3 mph97%30.11 "Hg5 mi
6:53 pm57 °FFog.5 mph90%30.09 "Hg6 mi
5:53 pm57 °FPassing clouds.6 mph83%30.09 "Hg6 mi
4:53 pm60 °FPassing clouds.6 mph75%30.08 "Hg5 mi
3:53 pm63 °FPartly sunny.6 mph68%30.08 "Hg6 mi
2:53 pm64 °FPartly sunny.8 mph68%30.09 "Hg6 mi
1:53 pm63 °FPartly sunny.3 mph68%30.09 "Hg6 mi
12:53 pm62 °FPartly sunny.7 mph60%30.11 "Hg6 mi
11:53 am61 °FPartly sunny.5 mph70%30.14 "Hg6 mi
10:53 am57 °FBroken clouds.No wind81%30.17 "Hg6 mi
9:53 am54 °FPartly sunny.No wind83%30.19 "Hg4 mi
8:53 am52 °FFog.No wind86%30.19 "Hg4 mi
7:53 am50 °FFog.No wind100%30.17 "Hg3 mi
7:00 am48 °FFog.5 mph93%30.17 "Hg1 mi
5:53 am46 °FFog.No wind96%30.15 "Hg6 mi
4:53 am46 °FFog.No wind93%30.15 "Hg5 mi
3:53 am47 °FFog.3 mph93%30.15 "Hg6 mi
2:53 am49 °FPassing clouds.3 mph86%30.14 "Hg7 mi
1:53 am49 °FFog.3 mph97%30.16 "Hg5 mi
12:53 am47 °FFog.No wind93%30.17 "Hg5 mi
Weather by CustomWeather, © 2016

See weather overviewHow to use our weather pages